Regional Weather Roundup
Issued by NWS Raleigh/Durham, NC

Home | Current Version | Previous Version | Text Only | Print | Product List | Glossary On
Versions: 1 2 3 4 5 6 7 8 9 10 11 12 13 14 15 16 17 18 19 20 21 22 23 24 25 26 27 28 29 30 31 32 33 34 35 36 37 38 39 40 41 42 43 44 45 46 47 48 49 50
000
ASUS42 KRAH 200610
RWRRAH
NORTH CAROLINA WEATHER ROUNDUP
NATIONAL WEATHER SERVICE RALEIGH NC
200 AM EDT WED SEP 20 2017

NOTE: "FAIR" INDICATES FEW OR NO CLOUDS BELOW 12,000 FEET WITH NO
SIGNIFICANT WEATHER AND/OR OBSTRUCTIONS TO VISIBILITY.

NCZ001-053-055-056-065-067-200700-
WESTERN NORTH CAROLINA

CITY           SKY/WX    TMP DP  RH WIND       PRES   REMARKS
ASHEVILLE      PTCLDY    67  63  87 N3        30.08S
JEFFERSON      CLOUDY    60  58  92 CALM      30.10S
MORGANTON      PTCLDY    64  64 100 CALM      30.05S FOG
HICKORY        PTCLDY    66  66 100 CALM      30.00F
RUTHERFORDTON  PTCLDY    67  67 100 CALM      30.02S
MOUNT AIRY     CLEAR     67  63  88 CALM      30.03R FOG
BOONE          CLEAR     56  56 100 CALM      30.12S
$$

NCZ021-022-025-041-071-084-088-200700-
CENTRAL NORTH CAROLINA

CITY           SKY/WX    TMP DP  RH WIND       PRES   REMARKS
CHARLOTTE      CLEAR     71  69  93 CALM      30.00S
GREENSBORO     PTCLDY    68  65  90 SW6       29.99R
WINSTON-SALEM  CLEAR     71  66  84 CALM      30.00S
RALEIGH-DURHAM PTCLDY    63  63 100 CALM      29.97S
FORT BRAGG     CLEAR     65  63  94 CALM      29.96R
FAYETTEVILLE   CLEAR     67  65  93 W3        29.96R
BURLINGTON     CLEAR     67  65  93 CALM      29.97S
LAURINBURG     CLEAR     64  64 100 CALM      29.98R FOG
$$

NCZ011-015-027-028-043-044-047-080-103-200700-
NORTHEASTERN NORTH CAROLINA

CITY           SKY/WX    TMP DP  RH WIND       PRES   REMARKS
ROCKY MT-WILSO CLEAR     63  63 100 CALM      29.95R
GREENVILLE     CLEAR     64  64 100 CALM      29.96R FOG
WASHINGTON     CLEAR     67  65  93 CALM      29.93S
ELIZABETH CITY CLOUDY    71  69  93 W8        29.90R
MANTEO         CLOUDY    72  68  89 NW6       29.89S
CAPE HATTERAS  CLOUDY    74  71  91 W5        29.90S
$$

NCZ078-087-090-091-093-098-101-200700-
SOUTHEASTERN NORTH CAROLINA

CITY           SKY/WX    TMP DP  RH WIND       PRES   REMARKS
LUMBERTON      CLEAR     64  64 100 CALM      29.96S FOG
GOLDSBORO      CLEAR     68  68 100 CALM      29.93S
KINSTON        CLEAR     68  66  94 W5        29.95R
KENANSVILLE    CLEAR     64  63  94 CALM      29.96R FOG
NEW BERN       CLEAR     67  66  97 CALM      29.94S
CHERRY POINT   CLEAR     69  67  93 SW3       29.94S
BEAUFORT       CLEAR     72  68  87 CALM      29.93S
JACKSONVILLE   CLEAR     69  67  93 W3        29.94R
WILMINGTON     CLEAR     69  67  93 CALM      29.95R
$$




USA.gov is the U.S. government's official web portal to all federal, state and local government web resources and services.